Weather History for Santa Barbara, CA

Change the Weather History Date:

Sunday, May 10, 2009

  Actual Average Record
Temperature  
Mean Temperature 59 °F 60 °F  
Max Temperature 65 °F 69 °F 80 °F (1950)
Min Temperature 52 °F 51 °F 41 °F (1982)
Degree Days  
Heating Degree Days 6 5  
Month to date heating degree days 16 59  
Since 1 July heating degree days 2003 2184  
Cooling Degree Days 0 0  
Month to date cooling degree days 54 0  
Year to date cooling degree days 65 7  
Growing Degree Days 8 (Base 50)    
Moisture  
Dew Point 52 °F    
Average Humidity 80    
Maximum Humidity 93    
Minimum Humidity 67    
Precipitation  
Precipitation 0.00 in 0.01 in 0.07 in (1980)
Month to date precipitation T 0.17  
Year to date precipitation 5.63 11.81  
Since 1 July precipitation 9.61 17.52  
Sea Level Pressure  
Sea Level Pressure 29.90 in    
Wind  
Wind Speed 5 mph (SE)    
Max Wind Speed 13 mph    
Max Gust Speed 17 mph    
Visibility 4 miles    
Events      
T = Trace of Precipitation, MM = Missing Value Source: NWS Daily Summary

Daily Weather History Graph

Daily Weather History Graph

Search for Another Location

Airport:

Trip Planner

Search our weather history database for the weather conditions in past years. The results will help you decide how hot, cold, wet, or windy it might be!

Date:

Astronomy

May. 10, 2009 Rise Set
Actual Time 6:00 AM PDT 7:51 PM PDT
Civil Twilight 5:33 AM PDT 8:18 PM PDT
Nautical Twilight 5:00 AM PDT 8:52 PM PDT
Astronomical Twilight 4:24 AM PDT 9:27 PM PDT
Moon 9:50 PM PDT (5/10) 6:42 AM PDT (5/10)
Length of Visible Light 14h 45m
Length of Day
13h 50m
Full, 97% of the Moon is Illuminated
May 10
Full
May 17
Last Quarter
May 24
New
May 30
First Quarter
Jun 7
Full

Hourly Weather History & Observations

Time (PDT) Temp. Dew Point Humidity Pressure Visibility Wind Dir Wind Speed Gust Speed Precip Events Conditions
12:53 AM 55.9 °F 52.0 °F 87% 29.88 in 4.0 mi East 5.8 mph - N/A   Clear
1:16 AM 55.4 °F 51.8 °F 88% 29.88 in 4.0 mi East 6.9 mph - N/A   Partly Cloudy
1:28 AM 55.4 °F 53.6 °F 94% 29.88 in 3.0 mi East 5.8 mph - N/A   Mostly Cloudy
1:53 AM 55.9 °F 53.1 °F 90% 29.89 in 3.0 mi East 5.8 mph - N/A   Mostly Cloudy
2:17 AM 53.6 °F 50.0 °F 88% 29.89 in 4.0 mi ESE 9.2 mph - N/A   Partly Cloudy
2:53 AM 55.0 °F 51.1 °F 86% 29.89 in 4.0 mi ESE 9.2 mph - N/A   Overcast
3:53 AM 55.0 °F 52.0 °F 89% 29.88 in 3.0 mi SE 5.8 mph - N/A   Overcast
4:45 AM 55.4 °F 51.8 °F 88% 29.89 in 3.0 mi ESE 3.5 mph - N/A   Overcast
5:53 AM 55.9 °F 52.0 °F 87% 29.90 in 5.0 mi Calm Calm - N/A   Overcast
6:53 AM 57.0 °F 53.1 °F 87% 29.91 in 3.0 mi East 3.5 mph - N/A   Overcast
7:02 AM 57.2 °F 53.6 °F 88% 29.91 in 1.8 mi SE 3.5 mph - N/A   Overcast
7:09 AM 57.2 °F 53.6 °F 88% 29.91 in 1.5 mi Calm Calm - N/A   Overcast
7:53 AM 57.0 °F 53.1 °F 87% 29.92 in 1.5 mi Calm Calm - N/A   Overcast
8:53 AM 57.9 °F 54.0 °F 87% 29.94 in 4.0 mi Variable 3.5 mph - N/A   Overcast
9:53 AM 57.9 °F 54.0 °F 87% 29.95 in 4.0 mi SSE 4.6 mph - N/A   Overcast
10:53 AM 59.0 °F 53.1 °F 81% 29.95 in 6.0 mi SSE 3.5 mph - N/A   Haze
11:53 AM 61.0 °F 53.1 °F 75% 29.95 in 8.0 mi SSE 5.8 mph - N/A   Smoke
12:00 PM 60.8 °F 53.6 °F 77% 29.94 in 9.0 mi SSE 5.8 mph - N/A   Smoke
12:53 PM 62.1 °F 53.1 °F 72% 29.94 in 8.0 mi SSW 4.6 mph - N/A   Smoke
1:53 PM 63.0 °F 54.0 °F 72% 29.93 in 5.0 mi WSW 8.1 mph - N/A   Haze
2:53 PM 63.0 °F 53.1 °F 70% 29.91 in 6.0 mi West 10.4 mph - N/A   Haze
3:32 PM 64.4 °F 51.8 °F 64% 29.90 in 6.0 mi West 10.4 mph - N/A   Haze
3:53 PM 63.0 °F 52.0 °F 67% 29.90 in 6.0 mi West 11.5 mph - N/A   Haze
4:53 PM 62.1 °F 51.1 °F 67% 29.88 in 6.0 mi WSW 11.5 mph - N/A   Haze
5:36 PM 60.8 °F 51.8 °F 72% 29.88 in 4.0 mi WSW 9.2 mph - N/A   Haze
5:53 PM 59.0 °F 51.1 °F 75% 29.88 in 5.0 mi WSW 9.2 mph - N/A   Haze
6:35 PM 57.2 °F 51.8 °F 82% 29.87 in 5.0 mi West 4.6 mph - N/A   Haze
6:53 PM 57.0 °F 50.0 °F 77% 29.86 in 5.0 mi SSW 3.5 mph - N/A   Haze
7:53 PM 54.0 °F 48.9 °F 83% 29.86 in 4.0 mi SE 3.5 mph - N/A   Haze
8:53 PM 53.1 °F 48.9 °F 86% 29.87 in 4.0 mi Calm Calm - N/A   Clear
9:53 PM 52.0 °F 48.9 °F 89% 29.88 in 3.0 mi East 3.5 mph - N/A   Clear
10:30 PM 53.6 °F 50.0 °F 88% 29.88 in 4.0 mi East 4.6 mph - N/A   Scattered Clouds
10:38 PM 53.6 °F 50.0 °F 88% 29.88 in 4.0 mi East 5.8 mph - N/A   Mostly Cloudy
10:53 PM 54.0 °F 51.1 °F 90% 29.88 in 3.0 mi ESE 5.8 mph - N/A   Overcast
11:00 PM 53.6 °F 51.8 °F 94% 29.88 in 2.5 mi ESE 4.6 mph - N/A   Overcast
11:14 PM 53.6 °F 51.8 °F 94% 29.88 in 1.5 mi East 5.8 mph - N/A   Overcast
11:53 PM 54.0 °F 52.0 °F 93% 29.88 in 1.5 mi East 4.6 mph - N/A   Overcast